N2XP-3 Weather Reports


time (UTC)temp
C
wind
direction
speed
KPH
gust
KPH
rain 1hr
cm
rain 24hr
cm
rain mn
cm
humidity
%
barometer
mb
20260506183029 16 246 0.0 0.0 0.00 0.03 0.00 97 1004.9
20260506182609 16 308 1.6 0.0 0.00 0.03 0.00 97 1004.9
20260506182517 16 308 1.6 0.0 0.00 0.03 0.00 97 1004.9
20260506182109 16 264 1.6 0.0 0.00 0.03 0.00 96 1005.0
20260506182018 16 264 1.6 0.0 0.00 0.03 0.00 96 1005.0
20260506181518 16 225 3.2 0.0 0.00 0.03 0.00 96 1005.0
20260506181015 16 294 1.6 0.0 0.00 0.03 0.00 96 1005.1
20260506180013 16 278 0.0 3.2 0.00 0.03 0.00 96 1005.1
20260506175502 16 262 3.2 0.0 0.00 0.03 0.00 95 1005.1
20260506175001 16 195 0.0 4.8 0.00 0.03 0.00 95 1005.2
20260506174501 16 263 6.4 0.0 0.00 0.03 0.00 95 1005.3
20260506173958 16 267 3.2 8.0 0.00 0.03 0.00 95 1005.3
20260506173459 16 219 0.0 0.0 0.00 0.03 0.00 95 1005.2
20260506172455 16 240 1.6 3.2 0.00 0.03 0.00 95 1005.2
20260506171956 16 250 0.0 3.2 0.00 0.03 0.00 95 1005.2
20260506171457 16 214 0.0 3.2 0.00 0.03 0.00 95 1005.3
20260506170951 16 156 1.6 1.6 0.00 0.03 0.00 95 1005.4
20260506170450 16 181 6.4 1.6 0.00 0.03 0.00 95 1005.3
20260506165950 16 255 0.0 0.0 0.00 0.03 0.00 95 1005.3
20260506165448 16 172 3.2 4.8 0.00 0.03 0.00 94 1005.3
20260506164948 17 267 1.6 4.8 0.00 0.03 0.00 93 1005.2
20260506164521 17 217 4.8 4.8 0.00 0.03 0.00 94 1005.2
20260506164449 17 217 4.8 4.8 0.00 0.03 0.00 94 1005.2
20260506164032 17 197 1.6 1.6 0.00 0.03 0.00 94 1005.3
20260506163945 17 197 1.6 1.6 0.00 0.03 0.00 94 1005.3
20260506163446 17 290 1.6 0.0 0.00 0.03 0.00 94 1005.5
20260506162947 17 187 1.6 1.6 0.00 0.03 0.00 93 1005.7
20260506162442 17 250 3.2 0.0 0.00 0.03 0.00 93 1005.9
20260506161943 17 305 1.6 4.8 0.00 0.03 0.00 92 1006.0
20260506161444 17 243 0.0 0.0 0.00 0.03 0.00 92 1006.2
20260506160938 17 243 0.0 0.0 0.00 0.03 0.00 90 1006.4
20260506160439 17 298 3.2 0.0 0.00 0.03 0.00 89 1006.4
20260506155427 17 231 4.8 1.6 0.00 0.03 0.00 88 1006.5
20260506154923 18 205 0.0 0.0 0.00 0.03 0.00 87 1006.4
20260506154418 18 329 1.6 0.0 0.00 0.03 0.00 87 1006.6
20260506153910 18 224 3.2 3.2 0.00 0.03 0.00 86 1006.7
20260506153411 18 263 0.0 8.0 0.00 0.03 0.00 86 1006.5
20260506153056 18 287 1.6 3.2 0.00 0.03 0.00 86 1006.4
20260506152408 18 287 1.6 3.2 0.00 0.03 0.00 86 1006.4
20260506152221 18 252 3.2 1.6 0.00 0.03 0.00 84 1006.4
20260506151408 18 252 3.2 1.6 0.00 0.03 0.00 84 1006.4
20260506151102 18 271 3.2 1.6 0.00 0.03 0.00 81 1006.6
20260506150517 18 271 3.2 1.6 0.00 0.03 0.00 81 1006.6
20260506150405 18 246 3.2 6.4 0.00 0.03 0.00 80 1006.6
20260506150402 18 271 3.2 1.6 0.00 0.03 0.00 81 1006.6
20260506150042 18 246 3.2 6.4 0.00 0.03 0.00 80 1006.6
20260506145858 18 246 3.2 6.4 0.00 0.03 0.00 80 1006.6
20260506145514 18 229 4.8 6.4 0.00 0.03 0.00 79 1006.7
20260506145351 18 7 8.0 3.2 0.00 0.03 0.00 79 1006.6
20260506144850 18 229 4.8 6.4 0.00 0.03 0.00 79 1006.7
20260506144350 18 323 0.0 0.0 0.00 0.03 0.00 79 1006.6
20260506143843 18 221 8.0 6.4 0.00 0.03 0.00 79 1006.6
20260506143344 18 271 8.0 3.2 0.00 0.03 0.00 78 1006.6
20260506142844 18 239 8.0 8.0 0.00 0.03 0.00 78 1006.8
20260506141839 18 233 4.8 11.3 0.00 0.03 0.00 79 1006.5
20260506141643 18 323 4.8 3.2 0.00 0.03 0.00 79 1006.5
20260506141339 18 323 4.8 3.2 0.00 0.03 0.00 79 1006.5
20260506140835 18 242 4.8 11.3 0.00 0.03 0.00 79 1006.5
20260506140336 18 231 8.0 9.7 0.00 0.03 0.00 79 1006.4
20260506135836 18 248 8.0 4.8 0.00 0.03 0.00 79 1006.5
20260506135334 18 277 8.0 11.3 0.00 0.03 0.00 79 1006.6
20260506134835 18 276 6.4 4.8 0.00 0.03 0.00 79 1006.6
20260506134335 18 159 6.4 6.4 0.00 0.03 0.00 80 1006.6
20260506133829 18 236 8.0 4.8 0.00 0.03 0.00 80 1006.7
20260506133330 18 219 4.8 8.0 0.00 0.03 0.00 79 1006.8
20260506132831 18 205 1.6 8.0 0.00 0.03 0.00 79 1006.8
20260506132328 18 197 6.4 6.4 0.00 0.03 0.00 79 1006.8
20260506131828 18 170 9.7 3.2 0.00 0.03 0.00 79 1007.0
20260506131329 18 207 4.8 11.3 0.00 0.03 0.00 79 1006.9
20260506130825 18 293 8.0 8.0 0.00 0.03 0.00 80 1006.7
20260506130325 18 252 4.8 6.4 0.00 0.03 0.00 80 1006.8
20260506125826 18 214 6.4 3.2 0.00 0.03 0.00 80 1007.0
20260506125410 18 285 4.8 12.9 0.00 0.03 0.00 81 1006.9
20260506125320 18 285 4.8 12.9 0.00 0.03 0.00 81 1006.9
20260506124820 18 128 11.3 4.8 0.00 0.03 0.00 80 1006.7
20260506124321 18 312 4.8 4.8 0.00 0.03 0.00 80 1006.6
20260506123815 18 203 9.7 3.2 0.00 0.03 0.00 81 1006.5
20260506123315 18 323 1.6 0.0 0.00 0.03 0.00 81 1006.5
20260506122816 18 271 1.6 4.8 0.00 0.03 0.00 82 1006.4
20260506122313 18 242 8.0 3.2 0.00 0.03 0.00 82 1006.6
20260506121813 17 232 8.0 6.4 0.00 0.03 0.00 83 1006.6
20260506121312 17 294 4.8 6.4 0.00 0.03 0.00 84 1006.7
20260506120758 17 236 4.8 4.8 0.00 0.03 0.00 84 1006.8
20260506114750 17 243 3.2 1.6 0.00 0.03 0.00 85 1006.9
20260506114251 17 298 3.2 6.4 0.00 0.03 0.00 85 1007.0
20260506113249 17 281 6.4 4.8 0.00 0.03 0.00 86 1006.9
20260506112750 17 207 0.0 0.0 0.00 0.03 0.00 86 1007.0
20260506112246 17 239 1.6 3.2 0.00 0.03 0.00 87 1006.9
20260506111747 16 248 4.8 4.8 0.00 0.03 0.00 87 1006.9
20260506111247 16 297 4.8 6.4 0.00 0.03 0.00 88 1006.9
20260506110742 16 188 3.2 3.2 0.00 0.03 0.00 88 1006.8
20260506110242 16 283 3.2 17.7 0.00 0.03 0.00 88 1006.9
20260506105741 16 253 8.0 3.2 0.00 0.03 0.00 89 1006.8
20260506105238 16 302 6.4 8.0 0.00 0.03 0.00 90 1006.7
20260506104737 16 193 4.8 3.2 0.00 0.03 0.00 90 1006.6
20260506104238 16 263 4.8 4.8 0.00 0.03 0.00 90 1006.6
20260506103733 16 170 3.2 0.0 0.00 0.03 0.00 91 1006.6
20260506102732 16 200 3.2 1.6 0.00 0.03 0.00 91 1006.6
20260506102228 16 312 4.8 9.7 0.00 0.03 0.00 91 1006.7
20260506101728 16 283 1.6 4.8 0.00 0.03 0.00 91 1006.7
20260506101229 15 240 3.2 6.4 0.00 0.03 0.00 91 1006.6
20260506100721 15 255 3.2 1.6 0.00 0.03 0.00 91 1006.5
20260506100221 15 308 3.2 1.6 0.00 0.03 0.00 91 1006.4
20260506095722 15 240 4.8 3.2 0.00 0.03 0.00 91 1006.5
20260506095216 15 242 8.0 6.4 0.00 0.03 0.00 91 1006.6
20260506094709 15 294 4.8 6.4 0.00 0.03 0.00 91 1006.5
20260506094210 15 297 0.0 6.4 0.00 0.03 0.00 91 1006.4
20260506093704 15 277 3.2 3.2 0.00 0.03 0.00 91 1006.4
20260506093205 15 201 3.2 0.0 0.00 0.03 0.00 91 1006.5
20260506092705 15 225 1.6 1.6 0.00 0.03 0.00 91 1006.5
20260506092151 15 210 3.2 0.0 0.00 0.03 0.00 91 1006.5
20260506091650 15 321 0.0 0.0 0.00 0.03 0.00 91 1006.6
20260506091223 15 270 6.4 9.7 0.00 0.03 0.00 91 1006.6
20260506091148 15 270 6.4 9.7 0.00 0.03 0.00 91 1006.6
20260506090641 15 236 0.0 0.0 0.00 0.03 0.00 91 1006.6
20260506090142 15 200 3.2 3.2 0.00 0.03 0.00 91 1006.6
20260506085642 15 356 0.0 0.0 0.00 0.03 0.00 91 1006.7
20260506084638 15 281 3.2 0.0 0.00 0.03 0.00 90 1006.7
20260506084138 15 264 3.2 4.8 0.00 0.03 0.00 89 1006.8
20260506083630 15 291 0.0 6.4 0.00 0.03 0.00 89 1006.8
20260506083131 15 300 0.0 8.0 0.00 0.03 0.00 89 1006.8
20260506082631 15 301 0.0 4.8 0.00 0.03 0.00 88 1006.8
20260506082127 15 210 3.2 3.2 0.00 0.03 0.00 88 1006.8
20260506081626 15 277 0.0 0.0 0.00 0.03 0.00 87 1006.8
20260506081126 15 329 0.0 0.0 0.00 0.03 0.00 87 1006.9
20260506080619 15 287 0.0 0.0 0.00 0.03 0.00 86 1006.9
20260506080118 15 287 0.0 0.0 0.00 0.03 0.00 86 1006.9
20260506073051 15 229 1.6 0.0 0.00 0.03 0.00 84 1007.0
20260506072551 15 205 3.2 3.2 0.00 0.03 0.00 83 1007.0
20260506072045 15 333 3.2 0.0 0.00 0.03 0.00 83 1007.0
20260506071546 15 236 0.0 4.8 0.00 0.03 0.00 83 1007.0
20260506071047 15 262 4.8 0.0 0.00 0.03 0.00 82 1007.0
20260506070543 15 302 3.2 4.8 0.00 0.03 0.00 82 1007.0
20260506062023 16 281 3.2 0.0 0.00 0.03 0.00 79 1007.4
20260506061524 16 245 3.2 1.6 0.00 0.03 0.00 78 1007.3
20260506060521 16 194 4.8 0.0 0.00 0.03 0.00 78 1007.4
20260506051004 16 214 0.0 3.2 0.00 0.03 0.00 75 1007.7
20260506050725 17 204 1.6 0.0 0.00 0.03 0.00 75 1007.7
20260506050458 17 204 1.6 0.0 0.00 0.03 0.00 75 1007.7
20260506045047 17 307 0.0 8.0 0.00 0.03 0.00 74 1007.8
20260506044948 17 307 0.0 8.0 0.00 0.03 0.00 74 1007.8
20260506043547 17 256 1.6 4.8 0.00 0.03 0.00 73 1007.8
20260506043439 17 256 1.6 4.8 0.00 0.03 0.00 73 1007.8
20260506042940 17 287 3.2 3.2 0.00 0.03 0.00 73 1007.8
20260506042753 17 219 1.6 0.0 0.00 0.03 0.00 73 1007.8
20260506042434 17 219 1.6 0.0 0.00 0.03 0.00 73 1007.8
20260506041929 17 318 3.2 4.8 0.00 0.03 0.00 72 1007.8
20260506041413 17 269 0.0 3.2 0.00 0.03 0.00 72 1007.8
20260506040913 17 252 4.8 4.8 0.00 0.03 0.00 71 1007.8
20260506040410 17 249 3.2 4.8 0.00 0.03 0.00 71 1007.8
20260506035910 18 281 6.4 6.4 0.00 0.03 0.00 71 1007.8
20260506035400 17 236 4.8 4.8 0.00 0.03 0.00 71 1007.8
20260506034855 17 300 0.0 9.7 0.00 0.03 0.00 70 1007.8
20260506034355 17 280 6.4 8.0 0.00 0.00 0.03 70 1007.8
20260506033856 17 262 6.4 6.4 0.00 0.00 0.03 70 1007.8
20260506033344 18 243 6.4 1.6 0.00 0.00 0.03 70 1007.8
20260506032847 18 176 6.4 1.6 0.00 0.00 0.03 69 1007.8
20260506032344 18 270 3.2 3.2 0.00 0.00 0.03 69 1007.8
20260506031836 18 257 6.4 4.8 0.00 0.00 0.03 69 1007.7
20260506031337 18 243 6.4 9.7 0.00 0.00 0.03 68 1007.8
20260506030838 18 215 8.0 6.4 0.00 0.00 0.03 67 1007.8
20260506030417 18 297 3.2 0.0 0.00 0.00 0.03 66 1007.8
20260506030335 18 297 3.2 0.0 0.00 0.00 0.03 66 1007.8
20260506025835 18 300 6.4 6.4 0.00 0.00 0.03 65 1007.8
20260506025336 18 246 3.2 0.0 0.00 0.00 0.03 65 1007.8
20260506024831 18 270 4.8 4.8 0.00 0.00 0.03 64 1007.8
20260506024325 18 326 3.2 3.2 0.00 0.00 0.03 63 1007.7
20260506024129 18 246 4.8 4.8 0.00 0.00 0.03 63 1007.7
20260506023826 18 246 4.8 4.8 0.00 0.00 0.03 63 1007.7
20260506023317 18 245 6.4 4.8 0.00 0.00 0.03 62 1007.7
20260506022909 18 249 3.2 1.6 0.00 0.00 0.03 61 1007.7
20260506022818 18 249 3.2 1.6 0.00 0.00 0.03 61 1007.7
20260506022319 19 259 4.8 4.8 0.00 0.00 0.03 60 1007.7
20260506021810 19 245 6.4 3.2 0.00 0.00 0.03 59 1007.6
20260506021311 19 228 6.4 6.4 0.00 0.00 0.03 59 1007.6
20260506020812 19 233 8.0 3.2 0.00 0.00 0.03 59 1007.6
20260506020306 19 233 9.7 4.8 0.00 0.00 0.03 58 1007.5
20260506015807 19 231 3.2 4.8 0.00 0.00 0.03 58 1007.5
20260506015305 20 143 3.2 1.6 0.00 0.00 0.03 58 1007.5
20260506014759 20 266 6.4 4.8 0.00 0.00 0.03 57 1007.4
20260506014300 20 277 6.4 12.9 0.00 0.00 0.03 58 1007.5
20260506013757 20 257 4.8 1.6 0.00 0.00 0.03 57 1007.3
20260506012809 20 15 4.8 6.4 0.00 0.00 0.03 56 1007.3
20260506012253 20 15 4.8 6.4 0.00 0.00 0.03 56 1007.3
20260506011351 20 281 3.2 4.8 0.00 0.00 0.03 56 1007.1
20260506011250 20 281 3.2 4.8 0.00 0.00 0.03 56 1007.1
20260506010747 20 288 3.2 4.8 0.00 0.00 0.03 56 1007.1
20260506010244 20 200 3.2 6.4 0.00 0.00 0.03 55 1007.0
20260506005740 20 273 0.0 1.6 0.00 0.00 0.03 55 1006.9
20260506005241 20 243 6.4 4.8 0.00 0.00 0.03 54 1006.9
20260506004733 20 260 3.2 6.4 0.00 0.00 0.03 53 1006.9
20260506004234 20 297 4.8 1.6 0.00 0.00 0.03 52 1006.8
20260506003735 20 256 1.6 1.6 0.00 0.00 0.03 52 1006.8
20260506002725 20 259 4.8 1.6 0.00 0.00 0.03 50 1006.7
20260506002224 21 267 1.6 6.4 0.00 0.00 0.03 49 1006.6
20260506001721 21 290 3.2 3.2 0.00 0.00 0.03 49 1006.6
20260506001222 21 287 6.4 6.4 0.00 0.00 0.03 49 1006.5
20260506000720 21 276 6.4 1.6 0.00 0.00 0.03 48 1006.4
20260506000213 21 205 0.0 0.0 0.00 0.00 0.03 48 1006.4
20260505235714 21 249 6.4 3.2 0.00 0.00 0.03 47 1006.4
20260505235214 22 256 4.8 3.2 0.00 0.00 0.03 46 1006.4
20260505234711 22 90 6.4 0.0 0.00 0.00 0.03 46 1006.3
20260505233709 22 229 3.2 4.8 0.00 0.00 0.03 44 1006.3
20260505233206 22 0 9.7 6.4 0.00 0.00 0.03 43 1006.3
20260505232707 23 236 6.4 6.4 0.00 0.00 0.03 43 1006.1
20260505232255 23 224 6.4 4.8 0.00 0.00 0.03 42 1006.1
20260505232204 23 224 6.4 4.8 0.00 0.00 0.03 42 1006.1
20260505231756 23 231 4.8 11.3 0.00 0.00 0.03 42 1006.1
20260505231753 23 291 4.8 9.7 0.00 0.00 0.03 42 1006.0
20260505231701 23 231 4.8 11.3 0.00 0.00 0.03 42 1006.1
20260505231201 23 291 4.8 9.7 0.00 0.00 0.03 42 1006.0
20260505230152 23 267 12.9 6.4 0.00 0.00 0.03 40 1005.9
20260505225653 23 158 11.3 4.8 0.00 0.00 0.03 40 1005.9
20260505225150 23 256 8.0 8.0 0.00 0.00 0.03 40 1005.8
20260505224647 23 114 6.4 1.6 0.00 0.00 0.03 40 1005.8
20260505221140 25 305 11.3 11.3 0.00 0.00 0.03 37 1005.6
20260505220640 25 259 8.0 16.1 0.00 0.00 0.03 36 1005.7
20260505220131 26 291 8.0 19.3 0.00 0.00 0.03 35 1005.6
20260505215626 26 186 11.3 11.3 0.00 0.00 0.03 35 1005.5
20260505215228 26 210 11.3 6.4 0.00 0.00 0.03 35 1005.5
20260505215128 26 210 11.3 6.4 0.00 0.00 0.03 35 1005.5
20260505214623 26 201 14.5 12.9 0.00 0.00 0.03 35 1005.5
20260505214122 26 283 8.0 3.2 0.00 0.00 0.03 35 1005.4
20260505213621 26 13 8.0 8.0 0.00 0.00 0.03 36 1005.5
20260505213116 26 231 14.5 16.1 0.00 0.00 0.03 35 1005.5
20260505212617 26 229 12.9 6.4 0.00 0.00 0.03 35 1005.4
20260505211613 26 346 6.4 3.2 0.00 0.00 0.03 34 1005.3
20260505210100 26 271 8.0 9.7 0.00 0.00 0.03 33 1005.0
20260505205651 27 235 8.0 19.3 0.00 0.00 0.03 33 1005.1
20260505205558 27 235 8.0 19.3 0.00 0.00 0.03 33 1005.1
20260505205059 27 290 11.3 12.9 0.00 0.00 0.03 33 1005.2
20260505204554 27 257 6.4 6.4 0.00 0.00 0.03 33 1005.0
20260505203556 27 260 8.0 6.4 0.00 0.00 0.03 34 1005.0
20260505203051 27 225 9.7 8.0 0.00 0.00 0.03 33 1005.1
20260505202553 27 271 8.0 6.4 0.00 0.00 0.03 33 1005.3
20260505202049 27 264 16.1 20.9 0.00 0.00 0.03 32 1005.1
20260505201923 28 246 9.7 4.8 0.00 0.00 0.03 32 1005.2
20260505201543 28 304 14.5 8.0 0.00 0.00 0.03 32 1005.2
20260505201044 28 246 9.7 4.8 0.00 0.00 0.03 32 1005.2
20260505194710 28 170 14.5 12.9 0.00 0.00 0.03 34 1005.3
20260505194534 28 170 14.5 12.9 0.00 0.00 0.03 34 1005.3
20260505194033 28 270 9.7 11.3 0.00 0.00 0.03 34 1005.3
20260505193534 28 243 9.7 9.7 0.00 0.00 0.03 34 1005.5
20260505193030 28 238 12.9 14.5 0.00 0.00 0.03 33 1005.5
20260505192527 28 222 14.5 4.8 0.00 0.00 0.03 32 1005.4
20260505191519 29 271 11.3 12.9 0.00 0.00 0.03 32 1005.7
20260505191019 29 281 9.7 9.7 0.00 0.00 0.03 34 1005.7
20260505190121 29 264 8.0 12.9 0.00 0.00 0.03 34 1005.8
20260505190015 29 264 8.0 12.9 0.00 0.00 0.03 34 1005.8
20260505185516 28 180 9.7 6.4 0.00 0.00 0.03 33 1005.8
20260505184509 28 260 11.3 4.8 0.00 0.00 0.03 32 1006.0
20260505183509 28 211 12.9 8.0 0.00 0.00 0.03 32 1006.0